Change the Weather History Date:

Sunday, November 3, 2013

  Actual Average Record
Temperature  
Mean Temperature 42 °F -  
Max Temperature 51 °F 62 °F 84 °F (1950)
Min Temperature 33 °F 40 °F 18 °F (1934)
Degree Days  
Heating Degree Days 23    
Moisture  
Dew Point 32 °F    
Average Humidity 64    
Maximum Humidity 87    
Minimum Humidity 35    
Precipitation  
Precipitation 0.00 in - - ()
Sea Level Pressure  
Sea Level Pressure 30.06 in    
Wind  
Wind Speed 4 mph (NNW)    
Max Wind Speed 14 mph    
Max Gust Speed 21 mph    
Visibility 11 miles    
Events      
Averages and records for this station are not official NWS values.
T = Trace of Precipitation, MM = Missing Value Source: NWS Daily Summary

Daily Weather History Graph

Daily Weather History Graph

Search for Another Location

Airport or City:

Trip Planner

Search our weather history database for the weather conditions in past years. The results will help you decide how hot, cold, wet, or windy it might be!

Date:

Astronomy

Nov. 03, 2013 Rise Set
Actual Time 6:30 AM EST 4:51 PM EST
Civil Twilight 6:02 AM EST 5:19 PM EST
Nautical Twilight 5:29 AM EST 5:52 PM EST
Astronomical Twilight 4:57 AM EST 6:24 PM EST
Moon 6:31 AM EST (11/3) 5:03 PM EST (11/3)
Length of Visible Light 11h 17m
Length of Day
10h 20m
New Moon, 0% of the Moon is Illuminated
Nov 3
New Moon
Nov 10
First Quarter
Nov 17
Full
Nov 25
Last Quarter
Dec 2
New

Hourly Weather History & Observations

Time (EST) Temp. Windchill Dew Point Humidity Pressure Visibility Wind Dir Wind Speed Gust Speed Precip Events Conditions
12:15 AM 44.6 °F - 39.2 °F 81% 29.80 in 10.0 mi Calm Calm - N/A   Clear
12:35 AM 42.8 °F - 39.2 °F 87% 29.81 in 10.0 mi Calm Calm - N/A   Clear
12:55 AM 42.8 °F - 39.2 °F 87% 29.82 in 10.0 mi Calm Calm - N/A   Clear
1:15 AM 42.8 °F - 37.4 °F 81% 29.82 in 10.0 mi Calm Calm - N/A   Clear
1:35 AM 41.0 °F - 37.4 °F 87% 29.83 in 10.0 mi Calm Calm - N/A   Clear
1:55 AM 42.8 °F 41.1 °F 39.2 °F 87% 29.84 in 10.0 mi NW 3.5 mph - N/A   Clear
1:15 AM 46.4 °F 45.2 °F 39.2 °F 76% 29.84 in 10.0 mi NW 3.5 mph - N/A   Clear
1:35 AM 44.6 °F - 37.4 °F 76% 29.85 in 10.0 mi Calm Calm - N/A   Clear
1:55 AM 41.0 °F - 35.6 °F 81% 29.85 in 10.0 mi Calm Calm - N/A   Scattered Clouds
2:15 AM 42.8 °F - 37.4 °F 81% 29.85 in 10.0 mi Calm Calm - N/A   Mostly Cloudy
2:35 AM 44.6 °F 43.1 °F 41.0 °F 87% 29.86 in 10.0 mi WNW 3.5 mph - N/A   Overcast
2:55 AM 50.0 °F - 41.0 °F 71% 29.87 in 10.0 mi WNW 4.6 mph - N/A   Overcast
3:15 AM 51.8 °F - 41.0 °F 67% 29.87 in 10.0 mi NW 3.5 mph - N/A   Drizzle
3:35 AM 51.8 °F - 42.8 °F 71% 29.88 in 10.0 mi NNW 4.6 mph - N/A   Light Drizzle
3:55 AM 51.8 °F - 42.8 °F 71% 29.89 in 10.0 mi NNW 6.9 mph - N/A   Light Drizzle
4:15 AM 50.0 °F - 42.8 °F 76% 29.90 in 10.0 mi NNW 6.9 mph - N/A   Light Drizzle
4:35 AM 50.0 °F - 42.8 °F 76% 29.91 in 10.0 mi North 8.1 mph - N/A   Mostly Cloudy
4:55 AM 50.0 °F - 41.0 °F 71% 29.93 in 10.0 mi North 10.4 mph - N/A   Overcast
5:15 AM 50.0 °F - 39.2 °F 66% 29.94 in 10.0 mi North 6.9 mph - N/A   Overcast
5:35 AM 50.0 °F - 39.2 °F 66% 29.95 in 10.0 mi North 10.4 mph - N/A   Overcast
6:45 AM 46.4 °F 40.7 °F 37.4 °F 71% 30.01 in 10.0 mi North 12.7 mph - N/A   Overcast
7:45 AM 46.4 °F 41.9 °F 35.6 °F 66% 30.07 in 10.0 mi NNE 9.2 mph 16.1 mph N/A   Overcast
8:45 AM 46.4 °F 41.1 °F 33.8 °F 62% 30.09 in 10.0 mi NW 11.5 mph 20.7 mph N/A   Overcast
9:45 AM 46.4 °F 41.1 °F 33.8 °F 62% 30.13 in 10.0 mi North 11.5 mph 16.1 mph N/A   Overcast
10:45 AM 46.4 °F 41.5 °F 33.8 °F 62% 30.15 in 10.0 mi North 10.4 mph 18.4 mph N/A   Overcast
11:45 AM 46.4 °F 40.4 °F 32.0 °F 57% 30.16 in 10.0 mi North 13.8 mph 19.6 mph N/A   Mostly Cloudy
12:45 PM 50.0 °F - 30.2 °F 47% 30.16 in 20.0 mi North 10.4 mph 17.3 mph N/A   Scattered Clouds
1:45 PM 50.0 °F - 26.6 °F 40% 30.17 in 20.0 mi North 11.5 mph 20.7 mph N/A   Scattered Clouds
2:45 PM 50.0 °F - 23.0 °F 35% 30.20 in 10.0 mi North 6.9 mph 18.4 mph N/A   Scattered Clouds
3:45 PM 46.4 °F 41.1 °F 23.0 °F 40% 30.23 in 20.0 mi North 11.5 mph 17.3 mph N/A   Scattered Clouds
4:45 PM 42.8 °F 36.2 °F 19.4 °F 39% 30.27 in 20.0 mi North 12.7 mph 20.7 mph N/A   Clear
5:45 PM 41.0 °F 33.9 °F 19.4 °F 42% 30.32 in 10.0 mi North 12.7 mph 19.6 mph N/A   Clear
6:45 PM 37.4 °F 32.1 °F 19.4 °F 48% 30.37 in 10.0 mi North 6.9 mph 15.0 mph N/A   Clear
7:45 PM 35.6 °F 28.0 °F 19.4 °F 52% 30.38 in 10.0 mi North 10.4 mph - N/A   Partly Cloudy
8:45 PM 35.6 °F 30.7 °F 19.4 °F 52% 30.40 in 10.0 mi North 5.8 mph 13.8 mph N/A   Scattered Clouds
9:45 PM 33.8 °F 26.4 °F 19.4 °F 56% 30.42 in 10.0 mi North 9.2 mph - N/A   Clear
9:55 PM 37.4 °F 32.8 °F 19.4 °F 48% 30.42 in 10.0 mi NNW 5.8 mph - N/A   Clear
10:15 PM 37.4 °F 33.8 °F 19.4 °F 48% 30.42 in 10.0 mi North 4.6 mph - N/A   Clear
10:35 PM 37.4 °F 32.8 °F 19.4 °F 48% 30.44 in 10.0 mi North 5.8 mph - N/A   Clear
10:55 PM 35.6 °F 32.8 °F 19.4 °F 52% 30.44 in 10.0 mi North 3.5 mph - N/A   Clear